Vance Air Force Base Enid US
ICAO: KEND
IATA: END
Category: Large
Scheduled Services: No

Elevation: 1307 ft
TransAlt. 18000 ft.

Airport Communications:
APP:118.075
ATIS:115.4
CLNC DEL:22.54
DEP:120.525
GND:121.8
PMSV METRO:34.255
PTD:37.22
TWR:124.05

KEND Zoom In..

If Map Doesn't Load, Click Here

Runways:

(A) RW 13 length 4971 ft width 150 ft
---- / hdg 130

(B) RW 17C length 9217 ft width 150 ft
ILS 108.90 / hdg 175

(C) RW 17L length 5024 ft width 150 ft
---- / hdg 175

(D) RW 17R length 9217 ft width 150 ft
---- / hdg 175

(E) RW 31 length 4971 ft width 150 ft
---- / hdg 310

(F) RW 35C length 9217 ft width 150 ft
ILS 110.10 / hdg 355

(G) RW 35L length 9217 ft width 150 ft
---- / hdg 355

(H) RW 35R length 5024 ft width 150 ft
---- / hdg 355

Location; KEND
Day. 23 / Time. 08.56 Zulu
* Altimeter: 30.03
* Temperature: 17° c. 62.6°f.
* Wind from: 060° Speed 04 kn.
Dewpoint: 17° c.
Visibility: 10 Statute Miles.
Clouds: Overcast 1400 ft.

KEND 230856Z AUTO 06004KT 10SM OVC014 17/17 A3003 RMK AO2 SLP162 T01670167 57006 $


Wind From 060°
Speed 04 kn.

 
 
jpsmedia.com for Web Design worldairports.se 2018   terms of use